Kingsville, TX

10:41 PM CST on February 20, 2017 (GMT -0600)
Kingsville Naval Air Station

Weather History for KNQI - September, 2013

Change the Weather History Date:

Monday, September 9, 2013

  Actual Average Record
Temperature  
Mean Temperature 82 °F -  
Max Temperature 91 °F 90 °F 100 °F (2015)
Min Temperature 75 °F 72 °F 64 °F (2011)
Cooling Degree Days 18    
Growing Degree Days 32 (Base 50)    
Moisture  
Dew Point 75 °F    
Average Humidity 81    
Maximum Humidity 96    
Minimum Humidity 59    
Precipitation  
Precipitation 0.05 in - - ()
Sea Level Pressure  
Sea Level Pressure 29.89 in    
Wind  
Wind Speed 7 mph (ESE)    
Max Wind Speed 18 mph    
Max Gust Speed 25 mph    
Visibility 10 miles    
Events Rain    
Averages and records for this station are not official NWS values.
T = Trace of Precipitation, MM = Missing Value Source: NWS Daily Summary

Daily Weather History Graph

Daily Weather History Graph

Search for Another Location

Airport or City:

Trip Planner

Search our weather history database for the weather conditions in past years. The results will help you decide how hot, cold, wet, or windy it might be!

Date:

Astronomy

Sep. 09, 2013 Rise Set
Actual Time 7:14 AM CDT 7:42 PM CDT
Civil Twilight 6:50 AM CDT 8:05 PM CDT
Nautical Twilight 6:22 AM CDT 8:33 PM CDT
Astronomical Twilight 5:55 AM CDT 9:01 PM CDT
Moon 11:09 AM CDT (9/9) 10:28 PM CDT (9/9)
Length of Visible Light 13h 15m
Length of Day
12h 28m
Waxing Crescent, 19% of the Moon is Illuminated
Sep 9
Waxing Crescent
Sep 12
First Quarter
Sep 19
Full
Sep 26
Last Quarter
Oct 4
New

Hourly Weather History & Observations

Time (CDT) Temp. Heat Index Dew Point Humidity Pressure Visibility Wind Dir Wind Speed Gust Speed Precip Events Conditions
12:56 AM 75.0 °F - 73.9 °F 96% 29.87 in 10.0 mi North 3.5 mph - N/A   Clear
1:56 AM 75.9 °F - 73.9 °F 94% 29.87 in 10.0 mi NNE 3.5 mph - N/A   Clear
2:56 AM 75.0 °F - 73.9 °F 96% 29.86 in 10.0 mi North 3.5 mph - N/A   Clear
3:56 AM 75.0 °F - 73.9 °F 96% 29.86 in 10.0 mi NNE 3.5 mph - N/A   Partly Cloudy
4:56 AM 75.9 °F - 73.9 °F 94% 29.86 in 10.0 mi NNE 4.6 mph - N/A   Partly Cloudy
5:56 AM 75.0 °F - 73.9 °F 96% 29.86 in 10.0 mi NNE 3.5 mph - N/A   Scattered Clouds
6:56 AM 75.9 °F - 73.9 °F 94% 29.87 in 10.0 mi East 3.5 mph - N/A   Scattered Clouds
7:56 AM 77.0 °F - 75.0 °F 94% 29.89 in 10.0 mi ENE 3.5 mph - N/A   Scattered Clouds
8:56 AM 80.1 °F 85.4 °F 75.9 °F 87% 29.90 in 10.0 mi SE 3.5 mph - N/A   Scattered Clouds
9:56 AM 84.0 °F 93.7 °F 77.0 °F 79% 29.91 in 10.0 mi South 3.5 mph - N/A   Mostly Cloudy
10:36 AM 84.2 °F 92.3 °F 75.2 °F 74% 29.93 in 10.0 mi SE 10.4 mph - N/A   Overcast
10:56 AM 86.0 °F 96.9 °F 77.0 °F 74% 29.92 in 10.0 mi SE 9.2 mph - N/A   Mostly Cloudy
11:56 AM 89.1 °F 99.1 °F 75.0 °F 63% 29.91 in 10.0 mi SSE 12.7 mph - N/A   Mostly Cloudy
12:27 PM 84.2 °F 92.3 °F 75.2 °F 74% 29.92 in 4.0 mi East 18.4 mph 25.3 mph 0.04 in Rain Rain
12:53 PM 82.4 °F 88.2 °F 73.4 °F 74% 29.92 in 10.0 mi ESE 11.5 mph - 0.05 in   Mostly Cloudy
12:56 PM 82.9 °F 89.4 °F 73.9 °F 74% 29.91 in 10.0 mi ESE 12.7 mph - 0.05 in   Mostly Cloudy
1:56 PM 89.1 °F 100.2 °F 75.9 °F 65% 29.88 in 10.0 mi East 13.8 mph 19.6 mph N/A   Scattered Clouds
2:56 PM 90.0 °F 99.0 °F 73.9 °F 59% 29.87 in 10.0 mi SE 16.1 mph 23.0 mph N/A   Mostly Cloudy
3:56 PM 88.0 °F 97.5 °F 75.0 °F 65% 29.86 in 10.0 mi ESE 12.7 mph 17.3 mph N/A   Mostly Cloudy
4:56 PM 89.1 °F 99.1 °F 75.0 °F 63% 29.86 in 10.0 mi ESE 12.7 mph 18.4 mph N/A   Mostly Cloudy
5:56 PM 84.9 °F 92.1 °F 73.9 °F 69% 29.87 in 10.0 mi SE 15.0 mph - N/A   Mostly Cloudy
6:56 PM 84.0 °F 90.2 °F 73.0 °F 69% 29.87 in 10.0 mi ESE 16.1 mph - N/A   Mostly Cloudy
7:56 PM 82.0 °F 88.6 °F 75.0 °F 79% 29.87 in 10.0 mi ESE 11.5 mph 18.4 mph N/A   Mostly Cloudy
8:56 PM 80.1 °F 85.1 °F 75.0 °F 85% 29.89 in 10.0 mi ESE 8.1 mph - N/A   Mostly Cloudy
9:56 PM 79.0 °F - 75.0 °F 88% 29.91 in 10.0 mi ESE 9.2 mph - N/A   Mostly Cloudy
10:56 PM 78.1 °F - 75.9 °F 93% 29.92 in 10.0 mi SE 4.6 mph - N/A   Mostly Cloudy
11:56 PM 78.1 °F - 73.9 °F 87% 29.92 in 10.0 mi SSE 5.8 mph - N/A   Scattered Clouds